sat.trackr.live / text

‹ back to catalog

STARLINK-2502

NORAD 48327 · 2021-036BD

PAYLOAD ACTIVE UNKNOWN

§ Identity

Operator
Country
US
Launch date
2021-04-29
Launch site
AFETR
Launch vehicle
Mass (kg)
RCS (m²)

Purposes: comms

External: N2YO · Heavens-Above · Gunter

§ Orbital elements

Epoch: 2026-09-19T15:52:33.263040Z

Period
94.01 min
Inclination
53.1604°
Eccentricity
0.0001466
Mean motion
15.31696872 rev/d
Perigee alt
469.7 km
Apogee alt
471.8 km
Semi-major
6,848.9 km
B*
1.8355e-5
RAAN
278.3957°
Arg perigee
70.5142°
Mean anomaly
289.6018°
Rev number
29,776

§ Raw data

STARLINK-25021 48327U 21036BD  26262.66149610  .00000204  00000+0  18355-4 0  99982 48327  53.1604 278.3957 0001466  70.5142 289.6018 15.31696872297765

JSON: /api/v1/satellites/48327 · /tle

For live sub-satellite position, see the globe view (requires WebGL).

§ Visibility from observer

Set your observer location to see the next 7 days of passes ≥ 10°. The values pass through the URL so the page stays shareable.

No JS? Fill the form by hand. The geolocation button needs JavaScript.